Location: Béaulencourt
(50.0796°N, 2.8795°E)
Time: 08:46:51
(UTC+00:00)

ARIANE 6 FM1 Upper Stage - Pass Details

Date: 18 March 2026
Orbit: 525 x 604 km, 62.0° (Epoch: 18 April)

Event Time Altitude Azimuth Distance (km) Brightness Sun altitude
Exits shadow 02:46:17 30° 69° (ENE) 973 4.3 -29.1°
Drops below altitude 10° 02:48:32 10° 53° (NE) 1,793 6.2 -28.9°
Sets 02:50:45 0° 49° (NE) 2,679 7.4 -28.6°
